Lucknow, India

3:11 PM IST on March 24, 2017 (GMT +0530)
Lucknow

Weather History for VILK - October, 2013

Change the Weather History Date:

Sunday, October 20, 2013

  Actual Average Record
Temperature  
Mean Temperature 78 °F -  
Max Temperature 90 °F 80 °F 96 °F (2015)
Min Temperature 65 °F 62 °F 58 °F (2014)
Cooling Degree Days 12    
Growing Degree Days 28 (Base 50)    
Moisture  
Dew Point 70 °F    
Average Humidity 73    
Maximum Humidity 94    
Minimum Humidity 37    
Precipitation  
Precipitation 0.00 in - - ()
Sea Level Pressure  
Sea Level Pressure 29.84 in    
Wind  
Wind Speed 2 mph ()    
Max Wind Speed 6 mph    
Max Gust Speed -    
Visibility 2.0 miles    
Events      
Averages and records for this station are not official NWS values.
T = Trace of Precipitation, MM = Missing Value Source: Averaged Metar Reports

Daily Weather History Graph

Daily Weather History Graph

Search for Another Location

Airport or City:

Trip Planner

Search our weather history database for the weather conditions in past years. The results will help you decide how hot, cold, wet, or windy it might be!

Date:

Astronomy

Oct. 20, 2013 Rise Set
Actual Time 6:08 AM IST 5:33 PM IST
Civil Twilight 5:45 AM IST 5:57 PM IST
Nautical Twilight 5:17 AM IST 6:24 PM IST
Astronomical Twilight 4:51 AM IST 6:51 PM IST
Moon 6:31 PM IST (10/20) 7:10 AM IST (10/20)
Length of Visible Light 12h 12m
Length of Day
11h 25m
Full, 98% of the Moon is Illuminated
Oct 20
Full
Oct 27
Last Quarter
Nov 3
New
Nov 10
First Quarter
Nov 17
Full

Hourly Weather History & Observations

Time (IST) Temp. Heat Index Dew Point Humidity Pressure Visibility Wind Dir Wind Speed Gust Speed Precip Events Conditions
12:00 AM 73.4 °F - 69.8 °F 88% 29.86 in 1.2 mi Calm Calm - N/A   Mist
1:00 AM 73.4 °F - 69.8 °F 88% 29.86 in 1.2 mi Variable 2.3 mph - N/A   Mist
2:00 AM 73.4 °F - 69.8 °F 88% 29.86 in 1.2 mi Calm Calm - N/A   Mist
2:30 AM 72 °F - 70 °F 92% 29.88 in 1 mi Calm Calm - -   Mist
3:00 AM 71.6 °F - 69.8 °F 94% 29.86 in 1.2 mi Calm Calm - N/A   Mist
4:00 AM 71.6 °F - 69.8 °F 94% 29.86 in 1.2 mi Calm Calm - N/A   Mist
5:00 AM 71.6 °F - 69.8 °F 94% 29.86 in 1.0 mi Variable 1.2 mph - N/A   Mist
5:30 AM 71 °F - 68 °F 89% 29.87 in 1 mi Calm Calm - -   Mist
5:30 AM 69.8 °F - 68.0 °F 94% 29.86 in 0.9 mi Calm Calm - N/A   Mist
6:00 AM 69.8 °F - 68.0 °F 94% 29.86 in 0.9 mi Calm Calm - N/A   Mist
6:30 AM 69.8 °F - 68.0 °F 94% 29.86 in 0.9 mi Calm Calm - N/A   Mist
7:00 AM 69.8 °F - 68.0 °F 94% 29.89 in 0.7 mi Calm Calm - N/A   Mist
8:30 AM 77 °F - 73 °F 83% 29.91 in 1 mi NW 2.3 mph - -   Mist
8:30 AM 77.0 °F - 73.4 °F 89% 29.89 in 1.6 mi NW 2.3 mph - N/A   Mist
9:00 AM 80.6 °F 85.4 °F 73.4 °F 79% 29.92 in 1.6 mi Variable 2.3 mph - N/A   Mist
9:30 AM 80.6 °F 84.6 °F 71.6 °F 74% 29.92 in 1.9 mi WSW 2.3 mph - N/A   Mist
10:00 AM 82.4 °F 88.2 °F 73.4 °F 74% 29.92 in 2.5 mi SW 2.3 mph - N/A   Haze
10:30 AM 84.2 °F 89.6 °F 71.6 °F 66% 29.92 in 2.5 mi WNW 3.5 mph - N/A   Haze
11:00 AM 86.0 °F 91.8 °F 71.6 °F 62% 29.89 in 2.5 mi NNW 3.5 mph - N/A   Haze
11:30 AM 86.0 °F 93.4 °F 73.4 °F 66% 29.89 in 2.5 mi NW 3.5 mph - N/A   Haze
12:00 PM 86.0 °F 93.4 °F 73.4 °F 66% 29.86 in 2.5 mi NW 2.3 mph - N/A   Haze
12:30 PM 87.8 °F 93.8 °F 71.6 °F 58% 29.86 in 2.5 mi NW 3.5 mph - N/A   Haze
1:00 PM 87.8 °F 93.8 °F 71.6 °F 58% 29.83 in 2.5 mi West 4.6 mph - N/A   Haze
1:30 PM 87.8 °F 92.6 °F 69.8 °F 55% 29.83 in 2.8 mi NNW 5.8 mph - N/A   Haze
2:00 PM 87.8 °F 91.4 °F 68.0 °F 52% 29.80 in 2.8 mi NNW 3.5 mph - N/A   Haze
2:30 PM 89 °F - 66 °F 37% 29.80 in 2 mi West 4.6 mph - -   Haze
2:30 PM 89.6 °F 92.2 °F 66.2 °F 46% 29.80 in 2.8 mi West 4.6 mph - N/A   Haze
3:00 PM 89.6 °F 92.2 °F 66.2 °F 46% 29.80 in 2.8 mi NW 4.6 mph - N/A   Haze
3:30 PM 89.6 °F 92.2 °F 66.2 °F 46% 29.77 in 2.8 mi NW 5.8 mph - N/A   Haze
4:00 PM 89.6 °F 93.4 °F 68.0 °F 49% 29.77 in 2.8 mi NW 5.8 mph - N/A   Haze
4:30 PM 87.8 °F 91.4 °F 68.0 °F 52% 29.77 in 2.5 mi NW 4.6 mph - N/A   Haze
5:00 PM 86.0 °F 88.2 °F 66.2 °F 51% 29.77 in 2.5 mi West 4.6 mph - N/A   Haze
5:30 PM 84 °F - 70 °F 55% 29.79 in 2 mi 2.3 mph - -   Haze
5:30 PM 84.2 °F 88.4 °F 69.8 °F 62% 29.77 in 2.5 mi Variable 2.3 mph - N/A   Haze
6:00 PM 84.2 °F 88.4 °F 69.8 °F 62% 29.80 in 2.5 mi Variable 2.3 mph - N/A   Haze
6:30 PM 80.6 °F 84.6 °F 71.6 °F 74% 29.80 in 2.5 mi Variable 2.3 mph - N/A   Haze
7:00 PM 78.8 °F - 69.8 °F 74% 29.80 in 2.5 mi Variable 2.3 mph - N/A   Haze
7:30 PM 77.0 °F - 69.8 °F 78% 29.80 in 2.5 mi Variable 2.3 mph - N/A   Haze
8:00 PM 77.0 °F - 69.8 °F 78% 29.80 in 2.5 mi Variable 2.3 mph - N/A   Haze
8:30 PM 76 °F - 71 °F 78% 29.83 in 2 mi Calm Calm - -   Haze
8:30 PM 75.2 °F - 69.8 °F 83% 29.83 in 2.5 mi Calm Calm - N/A   Haze
9:00 PM 75.2 °F - 69.8 °F 83% 29.83 in 2.5 mi Calm Calm - N/A   Haze
11:00 PM 73.4 °F - 68.0 °F 83% 29.83 in 1.9 mi Variable 2.3 mph - N/A   Mist